Regional Weather Roundup
Issued by NWS

Home | Current Version | Previous Version | Graphics & Text | Print | Product List | Glossary On
Versions: 1 2 3 4 5 6 7 8 9 10 11 12 13 14 15 16 17 18 19 20 21 22 23 24 25 26 27 28 29 30 31 32 33 34 35 36 37 38 39 40 41 42 43 44 45 46 47 48 49 50
000
ASUS43 KLOT 271504
RWRIL

ILLINOIS REGIONAL WEATHER ROUNDUP
NATIONAL WEATHER SERVICE CHICAGO/ROMEOVILLE IL
1000 AM CDT TUE JUN 27 2017

NOTE: "FAIR" INDICATES FEW OR NO CLOUDS BELOW 12,000 FEET WITH NO
SIGNIFICANT WEATHER AND/OR OBSTRUCTIONS TO VISIBILITY.

* THESE STATIONS ARE NOT UNDER NWS QUALITY CONTROL. THEY ALSO MAY NOT
  REPORT WEATHER SUCH AS PRECIPITATION OR FOG.

ILZ001-002-007-009-015-016-024-271600-
NORTHWEST ILLINOIS

CITY           SKY/WX    TMP DP  RH WIND       PRES   REMARKS
MOLINE         SUNNY     69  46  43 SW5       30.16F
STERLING*      SUNNY     68  50  52 W8        30.16F
SAVANNA*       SUNNY     67  49  51 NW3       30.15F
$$

ILZ003-004-008-010-011-017-018-271600-
NORTH CENTRAL ILLINOIS

CITY           SKY/WX    TMP DP  RH WIND       PRES   REMARKS
ROCKFORD       SUNNY     71  48  43 NW7       30.15F
FREEPORT*      SUNNY     67  47  47 W6        30.16F
ROCHELLE*      SUNNY     66  48  51 W7        30.16S
DE KALB*       SUNNY     67  46  46 NW10      30.16S
PERU*          SUNNY     66  47  51 W8        30.17S
$$

ILZ005-006-012>014-019>023-271600-
NORTHEAST ILLINOIS

CITY           SKY/WX    TMP DP  RH WIND       PRES   REMARKS
CHICAGO-OHARE  MOSUNNY   69  45  41 NW8       30.13S
CHICAGO-MIDWAY MOSUNNY   68  46  45 W5        30.14S
AURORA         SUNNY     68  48  48 W7        30.16S
LANSING*       SUNNY     68  44  42 W7        30.15F
JOLIET*        SUNNY     69  47  46 W6        30.16S
WAUKEGAN       SUNNY     68  50  52 VRB6      30.12F
DUPAGE AIRPORT SUNNY     67  48  50 NW7       30.14S
WHEELING       SUNNY     68  49  50 NW9       30.14F
MORRIS*        SUNNY     68  45  44 W7        30.15F
ROMEOVILLE*    SUNNY     68  44  42 W6        30.15F
$$

LMZ740>746-271600-
SOUTHERN LAKE MICHIGAN

STATION/POSITION SKY/WX   TEMP    WIND        PRES    VSBY  WAVE
                          AIR SEA DIR/SP/G                  HT/PER
                          (F)     (DEG/KT/KT) (MB)    (MI)  (FT/S)
SOUTHERN BUOY              60 61  310/ 10/ 12 1019.7          1/ 3
WILMETTE HARBOR            63 63  290/  2/  4   N/A           1/ 4
HARRISON CRIB              65     330/  4/  4   N/A
BURNHAM HARBOR             67                   N/A
CALUMET HARBOR             67     280/  4/  8 1020.1F
BURNS HARBOR               64     270/  6/ 10 1021.3S
MICHIGAN CITY              62     240/ 10/ 11   N/A
MICHIGAN CITY 6N           62 65  250/  8/ 10   N/A           2/ 5
ST. JOSEPH                 63 69  260/ 10/ 14 1020.6F         2/ 5
$$

ILZ025>027-034>036-040-047-049-050-058-095>099-271600-
WEST-CENTRAL ILLINOIS

CITY           SKY/WX    TMP DP  RH WIND       PRES   REMARKS
QUINCY         SUNNY     69  50  50 E8        30.16F
GALESBURG*     SUNNY     67  47  48 CALM      30.18F
MACOMB*        SUNNY     68  45  43 CALM      30.19F
JACKSONVILLE*  SUNNY     68  53  57 CALM      30.17F
PITTSFIELD*    SUNNY     70  56  61 E3        30.18S
$$

ILZ028>032-037-038-041>044-048-051>054-059>061-271600-
CENTRAL ILLINOIS

CITY           SKY/WX    TMP DP  RH WIND       PRES   REMARKS
PONTIAC        SUNNY     68  49  50 W5        30.18S
BLOOMINGTON    SUNNY     67  45  45 CALM      30.19S
DECATUR        SUNNY     68  45  43 E6        30.18S
PEORIA         SUNNY     69  44  40 CALM      30.17F
LACON*         SUNNY     67  49  52 CALM      30.17S
LINCOLN*       SUNNY     69  51  51 CALM      30.18F
SPRINGFIELD    SUNNY     71  50  47 E6        30.18S
TAYLORVILLE    SUNNY     68  46  45 SE5       30.18F
$$

ILZ033-039-045-046-055>057-062-063-271600-
EAST-CENTRAL ILLINOIS

CITY           SKY/WX    TMP DP  RH WIND       PRES   REMARKS
CHAMPAIGN      SUNNY     70  42  36 MISG      30.18S
RANTOUL*       SUNNY     69  48  46 NE5       30.18S
MATTOON        SUNNY     68  49  50 NE6       30.18S
PARIS*         SUNNY     66  49  54 N3        30.18F
$$

ILZ079-100>102-271600-
SOUTHWEST ILLINOIS

CITY           SKY/WX    TMP DP  RH WIND       PRES   REMARKS
ALTON          SUNNY     68  59  73 CALM      30.18S
BELLEVILLE     SUNNY     71  58  63 CALM      30.17F
CAHOKIA*       SUNNY     74  55  51 SE6       30.16F
SPARTA*        SUNNY     70  54  57 E5        30.18S
$$

ILZ064>066-069>071-074>076-080>082-084>086-088>090-092>094-271600-
SOUTH-CENTRAL ILLINOIS

CITY           SKY/WX    TMP DP  RH WIND       PRES   REMARKS
CARBONDALE     SUNNY     71  53  52 SE6       30.16F
CAIRO*         SUNNY     71  55  58 NE5       30.15F
EFFINGHAM*     SUNNY     69  51  52 NE5       30.19F
MARION         SUNNY     72  50  46 MISG      30.17F
CENTRALIA*     SUNNY     71  55  58 CALM      30.16F
SALEM*         SUNNY     71  54  55 CALM      30.17F
METROPOLIS*    SUNNY     73  55  53 NE6       30.16F
$$

ILZ067-068-072-073-078-083-087-091-271600-
SOUTHEAST ILLINOIS

CITY           SKY/WX    TMP DP  RH WIND       PRES   REMARKS
LAWRENCEVILLE  SUNNY     70  51  51 E5        30.18S
FLORA*         SUNNY     71  54  55 NE3       30.18S
FAIRFIELD*     SUNNY     70  53  55 CALM      30.17S
HARRISBURG*    SUNNY     71  56  60 CALM      30.17S
ROBINSON*      SUNNY     67  52  58 E3        30.19S
CARMI*         SUNNY     70  56  59 CALM      30.17S
$$

ABBREVIATIONS USED IN REMARKS
   TC - TEMPERATURE IN CELSIUS
  WCI - WIND CHILL INDEX
   HX - HEAT INDEX
  VSB - VISIBILITY
$$





USA.gov is the U.S. government's official web portal to all federal, state and local government web resources and services.